Location: Unspecified
(40.7945°N, 111.1337°W)
Time: 01:30:12
(UTC-06:00)

Altair - Pass Details

Date: 03 July 2019
Orbit: 1501 x 1683 km, 47.2° (Epoch: 19 July)

Event Time Altitude Azimuth Distance (km) Brightness Sun altitude
Rises 21:55:23 0° 288° (WNW) 4,708 11.5 -9.3°
Reaches altitude 10° 21:58:27 10° 292° (WNW) 3,746 10.8 -9.7°
Maximum altitude 22:07:57 66° 14° (NNE) 1,728 7.9 -11.1°
Drops below altitude 10° 22:17:48 10° 96° (E) 3,885 9.2 -12.4°
Enters shadow 22:19:37 - 98° (E) 4,443 9.4 -12.6°
